Time,TemperatureF,DewpointF,PressureIn,WindDirection,WindDirectionDegrees,WindSpeedMPH,WindSpeedGustMPH,Humidity,HourlyPrecipIn,Conditions,Clouds,dailyrainin,SolarRadiationWatts/m^2,SoftwareType,DateUTC
2013-03-29 00:12:00,78.1,70.0,30.01,ENE,76,9.0,9.0,76,0.00,,,0.00,0,weatherlink.com 1.10,2013-03-29 04:12:00,
2013-03-29 00:27:00,78.1,70.0,30.01,ENE,59,4.0,8.0,77,0.00,,,0.00,0,weatherlink.com 1.10,2013-03-29 04:27:00,
2013-03-29 00:42:00,78.1,70.0,30.01,NE,55,6.0,11.0,77,0.00,,,0.00,0,weatherlink.com 1.10,2013-03-29 04:42:00,
2013-03-29 00:57:00,78.1,71.0,30.01,ENE,65,2.0,9.0,78,0.00,,,0.00,0,weatherlink.com 1.10,2013-03-29 04:57:00,
2013-03-29 01:12:00,77.9,71.0,30.00,ENE,61,8.0,8.0,78,0.00,,,0.00,0,weatherlink.com 1.10,2013-03-29 05:12:00,
2013-03-29 01:27:00,77.8,70.0,29.99,NE,54,2.0,8.0,78,0.00,,,0.00,0,weatherlink.com 1.10,2013-03-29 05:27:00,
2013-03-29 01:42:00,77.7,70.0,29.99,East,79,2.0,8.0,78,0.00,,,0.00,0,weatherlink.com 1.10,2013-03-29 05:42:00,
2013-03-29 01:57:00,77.6,70.0,29.99,ENE,69,4.0,7.0,78,0.00,,,0.00,0,weatherlink.com 1.10,2013-03-29 05:57:00,
2013-03-29 02:12:00,77.6,70.0,29.98,ENE,60,7.0,8.0,78,0.00,,,0.00,0,weatherlink.com 1.10,2013-03-29 06:12:00,
2013-03-29 02:27:00,77.7,71.0,29.98,ENE,61,3.0,6.0,79,0.00,,,0.00,0,weatherlink.com 1.10,2013-03-29 06:27:00,
2013-03-29 02:43:00,77.4,70.0,29.97,ENE,60,0.0,4.0,79,0.00,,,0.00,0,weatherlink.com 1.10,2013-03-29 06:43:00,
2013-03-29 02:58:00,77.3,70.0,29.97,ENE,61,3.0,6.0,79,0.00,,,0.00,0,weatherlink.com 1.10,2013-03-29 06:58:00,
2013-03-29 03:13:00,77.4,71.0,29.97,ENE,57,1.0,6.0,80,0.00,,,0.00,0,weatherlink.com 1.10,2013-03-29 07:13:00,
2013-03-29 03:28:00,77.2,71.0,29.96,ENE,65,3.0,4.0,80,0.00,,,0.00,0,weatherlink.com 1.10,2013-03-29 07:28:00,
2013-03-29 03:43:00,77.1,71.0,29.96,ENE,69,8.0,8.0,80,0.00,,,0.00,0,weatherlink.com 1.10,2013-03-29 07:43:00,
2013-03-29 03:58:00,77.4,71.0,29.97,East,88,6.0,8.0,80,0.00,,,0.00,0,weatherlink.com 1.10,2013-03-29 07:58:00,
2013-03-29 04:13:00,77.4,71.0,29.97,ESE,110,2.0,7.0,80,0.00,,,0.00,0,weatherlink.com 1.10,2013-03-29 08:13:00,
2013-03-29 04:28:00,77.3,71.0,29.97,ENE,60,3.0,6.0,80,0.00,,,0.00,0,weatherlink.com 1.10,2013-03-29 08:28:00,
2013-03-29 04:43:00,77.1,71.0,29.97,ENE,70,3.0,8.0,80,0.00,,,0.00,0,weatherlink.com 1.10,2013-03-29 08:43:00,
2013-03-29 05:13:00,77.0,70.0,29.98,East,88,1.0,6.0,80,0.00,,,0.00,0,weatherlink.com 1.10,2013-03-29 09:13:00,
2013-03-29 05:30:00,76.8,71.0,29.99,East,89,1.0,7.0,81,0.00,,,0.00,0,weatherlink.com 1.10,2013-03-29 09:30:00,
2013-03-29 05:43:00,76.8,71.0,29.99,ESE,103,2.0,7.0,82,0.00,,,0.00,0,weatherlink.com 1.10,2013-03-29 09:43:00,
2013-03-29 05:58:00,76.6,71.0,30.00,ESE,103,1.0,5.0,83,0.00,,,0.00,0,weatherlink.com 1.10,2013-03-29 09:58:00,
2013-03-29 06:13:00,76.4,71.0,30.00,ESE,103,0.0,3.0,83,0.00,,,0.00,0,weatherlink.com 1.10,2013-03-29 10:13:00,
2013-03-29 06:43:00,76.2,71.0,30.00,ESE,103,1.0,2.0,84,0.00,,,0.00,25,weatherlink.com 1.10,2013-03-29 10:43:00,
2013-03-29 06:58:00,76.4,71.0,30.01,ESE,103,0.0,5.0,83,0.00,,,0.00,105,weatherlink.com 1.10,2013-03-29 10:58:00,
2013-03-29 07:13:00,76.8,71.0,30.02,West,261,2.0,5.0,83,0.00,,,0.00,153,weatherlink.com 1.10,2013-03-29 11:13:00,
2013-03-29 07:28:00,77.0,71.0,30.02,West,277,2.0,5.0,82,0.00,,,0.00,81,weatherlink.com 1.10,2013-03-29 11:28:00,
2013-03-29 07:43:00,77.0,72.0,30.02,WNW,289,5.0,9.0,85,0.00,,,0.00,83,weatherlink.com 1.10,2013-03-29 11:43:00,
2013-03-29 07:58:00,77.0,73.0,30.03,North,355,4.0,4.0,87,0.00,,,0.00,134,weatherlink.com 1.10,2013-03-29 11:58:00,
2013-03-29 08:13:00,77.1,73.0,30.04,NW,320,2.0,6.0,88,0.00,,,0.00,162,weatherlink.com 1.10,2013-03-29 12:13:00,
2013-03-29 08:28:00,76.6,73.0,30.05,North,355,1.0,8.0,88,0.00,,,0.00,84,weatherlink.com 1.10,2013-03-29 12:28:00,
2013-03-29 08:43:00,75.7,72.0,30.05,NNW,347,3.0,7.0,88,0.00,,,0.00,113,weatherlink.com 1.10,2013-03-29 12:43:00,
2013-03-29 08:58:00,75.6,72.0,30.06,WNW,302,4.0,7.0,89,0.00,,,0.00,42,weatherlink.com 1.10,2013-03-29 12:58:00,
2013-03-29 09:13:00,75.1,72.0,30.07,NNW,335,2.0,7.0,89,0.00,,,0.00,32,weatherlink.com 1.10,2013-03-29 13:13:00,
2013-03-29 09:28:00,74.8,72.0,30.07,NW,310,8.0,10.0,90,0.00,,,0.00,28,weatherlink.com 1.10,2013-03-29 13:28:00,
2013-03-29 09:43:00,74.1,71.0,30.07,NW,304,4.0,15.0,91,0.04,,,0.04,69,weatherlink.com 1.10,2013-03-29 13:43:00,
2013-03-29 09:58:00,73.8,71.0,30.07,North,355,3.0,13.0,91,0.16,,,0.16,44,weatherlink.com 1.10,2013-03-29 13:58:00,
2013-03-29 10:13:00,73.1,71.0,30.07,North,355,2.0,12.0,93,0.28,,,0.28,95,weatherlink.com 1.10,2013-03-29 14:13:00,
2013-03-29 10:29:00,72.8,71.0,30.07,WNW,298,6.0,16.0,93,0.33,,,0.33,127,weatherlink.com 1.10,2013-03-29 14:29:00,
2013-03-29 10:44:00,72.5,70.0,30.07,NW,322,6.0,17.0,92,0.33,,,0.37,146,weatherlink.com 1.10,2013-03-29 14:44:00,
2013-03-29 10:59:00,74.0,72.0,30.07,WNW,294,6.0,13.0,93,0.23,,,0.39,144,weatherlink.com 1.10,2013-03-29 14:59:00,
2013-03-29 11:14:00,73.7,72.0,30.08,WNW,298,4.0,9.0,93,0.11,,,0.40,186,weatherlink.com 1.10,2013-03-29 15:14:00,
2013-03-29 11:29:00,74.0,72.0,30.07,NW,325,4.0,8.0,93,0.11,,,0.44,209,weatherlink.com 1.10,2013-03-29 15:29:00,
2013-03-29 11:44:00,74.3,72.0,30.07,NNW,342,1.0,8.0,93,0.08,,,0.45,97,weatherlink.com 1.10,2013-03-29 15:44:00,
2013-03-29 11:59:00,74.2,72.0,30.07,ENE,59,2.0,10.0,92,0.06,,,0.45,197,weatherlink.com 1.10,2013-03-29 15:59:00,
2013-03-29 12:14:00,74.8,72.0,30.06,NNW,336,2.0,11.0,91,0.06,,,0.46,403,weatherlink.com 1.10,2013-03-29 16:14:00,
2013-03-29 12:29:00,75.4,73.0,30.06,NW,324,2.0,15.0,92,0.02,,,0.46,417,weatherlink.com 1.10,2013-03-29 16:29:00,
2013-03-29 12:44:00,75.6,73.0,30.06,NW,315,4.0,9.0,92,0.01,,,0.46,466,weatherlink.com 1.10,2013-03-29 16:44:00,
2013-03-29 12:59:00,75.3,72.0,30.05,NW,311,3.0,15.0,90,0.01,,,0.46,169,weatherlink.com 1.10,2013-03-29 16:59:00,
2013-03-29 13:14:00,75.1,72.0,30.05,NNE,15,5.0,15.0,90,0.00,,,0.46,334,weatherlink.com 1.10,2013-03-29 17:14:00,
2013-03-29 13:29:00,75.7,72.0,30.04,NNE,31,3.0,12.0,89,0.00,,,0.46,445,weatherlink.com 1.10,2013-03-29 17:29:00,
2013-03-29 13:44:00,75.8,72.0,30.04,NNW,345,5.0,12.0,88,0.00,,,0.46,381,weatherlink.com 1.10,2013-03-29 17:44:00,
2013-03-29 13:59:00,76.2,72.0,30.03,ENE,73,4.0,12.0,86,0.00,,,0.46,244,weatherlink.com 1.10,2013-03-29 17:59:00,
2013-03-29 14:14:00,76.0,71.0,30.03,SSE,162,4.0,15.0,85,0.00,,,0.46,130,weatherlink.com 1.10,2013-03-29 18:14:00,
2013-03-29 14:29:00,75.8,71.0,30.03,NE,49,2.0,16.0,85,0.00,,,0.46,109,weatherlink.com 1.10,2013-03-29 18:29:00,
2013-03-29 14:44:00,75.7,71.0,30.03,East,90,5.0,13.0,84,0.00,,,0.46,84,weatherlink.com 1.10,2013-03-29 18:44:00,
2013-03-29 14:59:00,75.5,70.0,30.03,North,5,2.0,14.0,84,0.00,,,0.46,100,weatherlink.com 1.10,2013-03-29 18:59:00,
2013-03-29 15:14:00,75.7,71.0,30.02,NNW,346,1.0,12.0,84,0.00,,,0.46,70,weatherlink.com 1.10,2013-03-29 19:14:00,
2013-03-29 15:29:00,75.8,71.0,30.02,ENE,73,3.0,12.0,85,0.00,,,0.46,47,weatherlink.com 1.10,2013-03-29 19:29:00,
2013-03-29 15:44:00,75.5,70.0,30.02,ENE,62,10.0,15.0,84,0.00,,,0.46,33,weatherlink.com 1.10,2013-03-29 19:44:00,
2013-03-29 15:59:00,75.5,70.0,30.02,NE,37,9.0,12.0,84,0.00,,,0.46,100,weatherlink.com 1.10,2013-03-29 19:59:00,
2013-03-29 16:14:00,75.5,70.0,30.02,NE,55,2.0,15.0,83,0.00,,,0.46,104,weatherlink.com 1.10,2013-03-29 20:14:00,
2013-03-29 16:29:00,75.6,70.0,30.02,NNW,345,5.0,16.0,83,0.00,,,0.46,65,weatherlink.com 1.10,2013-03-29 20:29:00,
2013-03-29 16:44:00,75.4,70.0,30.02,WNW,290,3.0,15.0,84,0.00,,,0.46,74,weatherlink.com 1.10,2013-03-29 20:44:00,
2013-03-29 16:59:00,75.2,70.0,30.02,ENE,57,7.0,15.0,83,0.00,,,0.46,54,weatherlink.com 1.10,2013-03-29 20:59:00,
2013-03-29 17:14:00,75.1,70.0,30.02,NNE,13,2.0,15.0,83,0.00,,,0.46,26,weatherlink.com 1.10,2013-03-29 21:14:00,
2013-03-29 17:29:00,75.0,70.0,30.02,ENE,77,5.0,14.0,83,0.00,,,0.46,25,weatherlink.com 1.10,2013-03-29 21:29:00,
2013-03-29 17:44:00,75.2,69.0,30.03,East,81,3.0,13.0,82,0.00,,,0.46,23,weatherlink.com 1.10,2013-03-29 21:44:00,
2013-03-29 17:59:00,75.1,69.0,30.03,NNW,338,3.0,12.0,82,0.00,,,0.46,14,weatherlink.com 1.10,2013-03-29 21:59:00,
2013-03-29 18:14:00,75.1,69.0,30.04,ENE,76,4.0,14.0,81,0.00,,,0.46,7,weatherlink.com 1.10,2013-03-29 22:14:00,
2013-03-29 18:29:00,75.1,69.0,30.04,NNE,26,12.0,13.0,81,0.00,,,0.46,0,weatherlink.com 1.10,2013-03-29 22:29:00,
2013-03-29 18:59:00,75.1,69.0,30.05,East,79,10.0,14.0,82,0.00,,,0.46,0,weatherlink.com 1.10,2013-03-29 22:59:00,
2013-03-29 19:15:00,74.9,69.0,30.06,ENE,70,3.0,13.0,82,0.00,,,0.46,0,weatherlink.com 1.10,2013-03-29 23:15:00,
2013-03-29 19:29:00,74.7,69.0,30.06,ENE,67,5.0,13.0,82,0.00,,,0.46,0,weatherlink.com 1.10,2013-03-29 23:29:00,
2013-03-29 19:44:00,74.6,69.0,30.07,ENE,63,10.0,12.0,83,0.00,,,0.46,0,weatherlink.com 1.10,2013-03-29 23:44:00,
2013-03-29 19:59:00,74.5,69.0,30.07,NE,39,1.0,13.0,82,0.00,,,0.46,0,weatherlink.com 1.10,2013-03-29 23:59:00,
2013-03-29 20:14:00,74.5,69.0,30.07,NNE,15,4.0,13.0,82,0.00,,,0.46,0,weatherlink.com 1.10,2013-03-30 00:14:00,
2013-03-29 20:29:00,74.8,70.0,30.08,East,86,8.0,11.0,84,0.00,,,0.46,0,weatherlink.com 1.10,2013-03-30 00:29:00,
2013-03-29 20:44:00,74.7,69.0,30.09,ENE,58,9.0,12.0,83,0.00,,,0.46,0,weatherlink.com 1.10,2013-03-30 00:44:00,
2013-03-29 20:59:00,74.6,69.0,30.09,ENE,77,2.0,16.0,83,0.00,,,0.46,0,weatherlink.com 1.10,2013-03-30 00:59:00,
2013-03-29 21:14:00,74.7,69.0,30.09,NNE,13,9.0,15.0,83,0.00,,,0.46,0,weatherlink.com 1.10,2013-03-30 01:14:00,
2013-03-29 21:29:00,74.8,69.0,30.10,NE,39,4.0,11.0,83,0.00,,,0.46,0,weatherlink.com 1.10,2013-03-30 01:29:00,
2013-03-29 21:44:00,74.8,70.0,30.10,ENE,63,4.0,14.0,84,0.00,,,0.46,0,weatherlink.com 1.10,2013-03-30 01:44:00,
2013-03-29 21:59:00,74.4,68.0,30.11,ENE,57,3.0,14.0,81,0.00,,,0.46,0,weatherlink.com 1.10,2013-03-30 01:59:00,
2013-03-29 22:14:00,74.6,68.0,30.11,NE,50,3.0,13.0,80,0.00,,,0.46,0,weatherlink.com 1.10,2013-03-30 02:14:00,
2013-03-29 22:29:00,74.9,68.0,30.11,ENE,76,4.0,13.0,79,0.00,,,0.46,0,weatherlink.com 1.10,2013-03-30 02:29:00,
2013-03-29 22:44:00,75.0,68.0,30.11,NE,49,7.0,13.0,78,0.00,,,0.46,0,weatherlink.com 1.10,2013-03-30 02:44:00,
2013-03-29 22:59:00,75.1,68.0,30.11,East,97,3.0,12.0,78,0.00,,,0.46,0,weatherlink.com 1.10,2013-03-30 02:59:00,
2013-03-29 23:14:00,75.1,68.0,30.11,ENE,71,3.0,12.0,79,0.00,,,0.46,0,weatherlink.com 1.10,2013-03-30 03:14:00,
2013-03-29 23:29:00,75.0,68.0,30.11,NNE,20,3.0,10.0,78,0.00,,,0.46,0,weatherlink.com 1.10,2013-03-30 03:29:00,
2013-03-29 23:44:00,75.1,68.0,30.11,NNE,19,5.0,15.0,79,0.00,,,0.46,0,weatherlink.com 1.10,2013-03-30 03:44:00,
2013-03-29 23:59:00,75.1,68.0,30.11,NE,46,4.0,11.0,79,0.00,,,0.46,0,weatherlink.com 1.10,2013-03-30 03:59:00,